Austin, MN

6:29 AM CDT on October 18, 2017 (GMT -0500)
Austin Municipal

Weather History for KAUM - April, 2014

Change the Weather History Date:

Tuesday, April 29, 2014

  Actual Average Record
Temperature  
Mean Temperature 38 °F -  
Max Temperature 42 °F 61 °F 87 °F (2007)
Min Temperature 33 °F 40 °F 3 °F (1997)
Degree Days  
Heating Degree Days 28    
Moisture  
Dew Point 36 °F    
Average Humidity 94    
Maximum Humidity 100    
Minimum Humidity 87    
Precipitation  
Precipitation 0.51 in - - ()
Sea Level Pressure  
Sea Level Pressure 29.58 in    
Wind  
Wind Speed 14 mph (NNE)    
Max Wind Speed 20 mph    
Max Gust Speed 30 mph    
Visibility 6 miles    
Events Rain , Snow    
Averages and records for this station are not official NWS values.
T = Trace of Precipitation, MM = Missing Value Source: NWS Daily Summary

Daily Weather History Graph

Daily Weather History Graph

Search for Another Location

Airport or City:

Trip Planner

Search our weather history database for the weather conditions in past years. The results will help you decide how hot, cold, wet, or windy it might be!

Date:

Astronomy

Apr. 29, 2014 Rise Set
Actual Time 6:06 AM CDT 8:11 PM CDT
Civil Twilight 5:35 AM CDT 8:43 PM CDT
Nautical Twilight 4:57 AM CDT 9:21 PM CDT
Astronomical Twilight 4:15 AM CDT 10:04 PM CDT
Moon 6:25 AM CDT (4/29) 8:53 PM CDT (4/29)
Length of Visible Light 15h 07m
Length of Day
14h 04m
New Moon, 0% of the Moon is Illuminated
Apr 29
New Moon
May 6
First Quarter
May 14
Full
May 21
Last Quarter
May 28
New

Hourly Weather History & Observations

Time (CDT) Temp. Windchill Dew Point Humidity Pressure Visibility Wind Dir Wind Speed Gust Speed Precip Events Conditions
12:15 AM 42.8 °F 34.3 °F 39.2 °F 87% 29.54 in 7.0 mi ENE 19.6 mph - N/A Rain Light Rain
12:35 AM 42.8 °F 34.8 °F 39.2 °F 87% 29.53 in 7.0 mi ENE 17.3 mph 26.5 mph N/A Rain Light Rain
12:55 AM 42.8 °F 34.5 °F 41.0 °F 93% 29.53 in 10.0 mi ENE 18.4 mph 24.2 mph 0.01 in Rain Light Rain
1:15 AM 42.8 °F 34.5 °F 39.2 °F 87% 29.53 in 10.0 mi ENE 18.4 mph 27.6 mph 0.01 in Rain Light Rain
1:35 AM 42.8 °F 34.3 °F 39.2 °F 87% 29.53 in 10.0 mi ENE 19.6 mph 24.2 mph 0.02 in Rain Light Rain
1:55 AM 42.8 °F 34.5 °F 39.2 °F 87% 29.53 in 10.0 mi ENE 18.4 mph 29.9 mph 0.02 in Rain Light Rain
2:14 AM 42.8 °F 34.8 °F 39.2 °F 87% 29.52 in 5.0 mi ENE 17.3 mph 23.0 mph 0.01 in Rain Light Rain
2:35 AM 42.8 °F 34.5 °F 39.2 °F 87% 29.52 in 7.0 mi ENE 18.4 mph 23.0 mph 0.01 in Rain Light Rain
2:55 AM 42.8 °F 35.4 °F 39.2 °F 87% 29.52 in 7.0 mi ENE 15.0 mph 23.0 mph 0.02 in Rain Light Rain
3:14 AM 41.0 °F 32.5 °F 39.2 °F 93% 29.52 in 7.0 mi ENE 17.3 mph 21.9 mph N/A Rain Light Rain
3:35 AM 41.0 °F 32.8 °F 39.2 °F 93% 29.52 in 7.0 mi ENE 16.1 mph 21.9 mph 0.01 in Rain Rain
3:55 AM 41.0 °F 33.1 °F 39.2 °F 93% 29.52 in 7.0 mi ENE 15.0 mph 23.0 mph 0.03 in Rain Light Rain
4:15 AM 41.0 °F 33.9 °F 39.2 °F 93% 29.52 in 5.0 mi ENE 12.7 mph 17.3 mph 0.01 in Rain Light Rain
4:35 AM 41.0 °F 33.5 °F 39.2 °F 93% 29.52 in 5.0 mi ENE 13.8 mph 20.7 mph 0.01 in Rain Rain
4:55 AM 41.0 °F 32.8 °F 39.2 °F 93% 29.52 in 7.0 mi ENE 16.1 mph 20.7 mph 0.01 in   Light Drizzle
5:15 AM 41.0 °F 33.1 °F 39.2 °F 93% 29.52 in 10.0 mi ENE 15.0 mph 20.7 mph N/A Rain Light Rain
5:35 AM 39.2 °F 31.6 °F 39.2 °F 100% 29.52 in 10.0 mi ENE 12.7 mph 19.6 mph 0.01 in Rain Light Rain
5:55 AM 39.2 °F 30.8 °F 39.2 °F 100% 29.52 in 10.0 mi ENE 15.0 mph - 0.01 in   Light Drizzle
6:15 AM 39.2 °F 32.5 °F 37.4 °F 93% 29.52 in 10.0 mi NE 10.4 mph - N/A Rain Rain
6:35 AM 39.2 °F 31.6 °F 37.4 °F 93% 29.53 in 10.0 mi ENE 12.7 mph 18.4 mph N/A   Overcast
6:55 AM 39.2 °F 30.8 °F 37.4 °F 93% 29.53 in 10.0 mi ENE 15.0 mph 19.6 mph N/A   Overcast
7:15 AM 39.2 °F 31.2 °F 37.4 °F 93% 29.53 in 10.0 mi NE 13.8 mph - N/A   Light Drizzle
7:18 AM 39.2 °F 31.2 °F 37.4 °F 93% 29.53 in 10.0 mi NE 13.8 mph - N/A   Light Drizzle
7:41 AM 39.2 °F 32.0 °F 37.4 °F 93% 29.53 in 4.0 mi NE 11.5 mph 16.1 mph N/A   Overcast
8:08 AM 39.2 °F 32.5 °F 37.4 °F 93% 29.53 in 7.0 mi NE 10.4 mph 18.4 mph 0.01 in Rain Light Rain
8:15 AM 39.2 °F 31.2 °F 37.4 °F 93% 29.53 in 10.0 mi NE 13.8 mph 17.3 mph 0.01 in Rain Light Rain
8:35 AM 39.2 °F 31.2 °F 37.4 °F 93% 29.53 in 10.0 mi NE 13.8 mph 17.3 mph 0.02 in Rain Light Rain
8:54 AM 39.2 °F 31.6 °F 37.4 °F 93% 29.53 in 10.0 mi NE 12.7 mph 19.6 mph 0.03 in Rain Rain
9:15 AM 39.2 °F 31.6 °F 37.4 °F 93% 29.54 in 10.0 mi NE 12.7 mph 18.4 mph 0.01 in Rain Light Rain
9:35 AM 39.2 °F 31.6 °F 37.4 °F 93% 29.54 in 10.0 mi NE 12.7 mph 17.3 mph 0.02 in Rain Light Rain
9:55 AM 37.4 °F 28.9 °F 35.6 °F 93% 29.55 in 7.0 mi NNE 13.8 mph 20.7 mph 0.03 in Rain Light Rain
10:15 AM 37.4 °F 30.3 °F 35.6 °F 93% 29.55 in 2.0 mi NNE 10.4 mph - 0.03 in Snow Snow
10:35 AM 35.6 °F 27.5 °F 33.8 °F 93% 29.55 in 3.0 mi NNE 11.5 mph 16.1 mph 0.05 in   Overcast
10:55 AM 35.6 °F 28.6 °F 33.8 °F 93% 29.55 in 2.5 mi NNE 9.2 mph 17.3 mph 0.07 in   Overcast
11:15 AM 35.6 °F 28.6 °F 33.8 °F 93% 29.55 in 3.0 mi NNE 9.2 mph - 0.02 in Snow Light Snow
11:35 AM 35.6 °F 28.0 °F 33.8 °F 93% 29.55 in 2.0 mi NNE 10.4 mph - 0.03 in Snow Light Snow
11:55 AM 33.8 °F 26.4 °F 33.8 °F 100% 29.56 in 2.0 mi NNE 9.2 mph - 0.04 in Snow Light Snow
12:15 PM 33.8 °F 25.3 °F 33.8 °F 100% 29.56 in 1.8 mi NNE 11.5 mph - 0.02 in Snow Light Snow
12:35 PM 33.8 °F 26.4 °F 33.8 °F 100% 29.56 in 1.8 mi NNE 9.2 mph - 0.04 in Snow Light Snow
12:55 PM 35.6 °F 28.6 °F 33.8 °F 93% 29.56 in 3.0 mi North 9.2 mph 16.1 mph 0.05 in Snow Light Snow
1:15 PM 35.6 °F 28.0 °F 35.6 °F 100% 29.56 in 7.0 mi North 10.4 mph - N/A Rain Light Rain
1:16 PM 35.6 °F 28.6 °F 35.6 °F 100% 29.56 in 7.0 mi NNE 9.2 mph - N/A Rain Light Rain
1:41 PM 37.4 °F 30.3 °F 35.6 °F 93% 29.56 in 10.0 mi North 10.4 mph 16.1 mph N/A   Overcast
2:05 PM 37.4 °F 29.3 °F 35.6 °F 93% 29.57 in 7.0 mi NNE 12.7 mph - N/A Rain Light Rain
2:15 PM 37.4 °F 28.5 °F 35.6 °F 93% 29.57 in 7.0 mi NNE 15.0 mph 18.4 mph N/A Rain Light Rain
2:35 PM 37.4 °F 28.9 °F 35.6 °F 93% 29.58 in 10.0 mi NNE 13.8 mph 20.7 mph 0.01 in Rain Light Rain
2:55 PM 37.4 °F 28.9 °F 35.6 °F 93% 29.59 in 7.0 mi NNE 13.8 mph 18.4 mph 0.01 in Rain Light Rain
3:15 PM 37.4 °F 29.3 °F 35.6 °F 93% 29.59 in 10.0 mi North 12.7 mph 23.0 mph 0.01 in Rain Light Rain
3:35 PM 37.4 °F 29.3 °F 35.6 °F 93% 29.59 in 10.0 mi North 12.7 mph 17.3 mph 0.02 in Rain Rain
4:15 PM 39.2 °F 32.0 °F 35.6 °F 87% 29.60 in 10.0 mi NNE 11.5 mph 21.9 mph 0.01 in Rain Light Rain
4:35 PM 37.4 °F 29.8 °F 35.6 °F 93% 29.60 in 7.0 mi North 11.5 mph 19.6 mph 0.02 in Rain Light Rain
4:55 PM 37.4 °F 31.4 °F 35.6 °F 93% 29.61 in 10.0 mi North 8.1 mph 18.4 mph 0.03 in Rain Light Rain
5:15 PM 37.4 °F 30.3 °F 35.6 °F 93% 29.62 in 10.0 mi NNE 10.4 mph 16.1 mph 0.01 in Rain Light Rain
5:35 PM 37.4 °F 30.3 °F 35.6 °F 93% 29.63 in 10.0 mi NNE 10.4 mph 16.1 mph 0.02 in Rain Light Rain
5:55 PM 37.4 °F 29.8 °F 35.6 °F 93% 29.64 in 10.0 mi North 11.5 mph 18.4 mph 0.03 in Rain Light Rain
6:15 PM 37.4 °F 31.4 °F 35.6 °F 93% 29.65 in 5.0 mi North 8.1 mph 16.1 mph 0.01 in Rain Rain
6:35 PM 35.6 °F 28.6 °F 33.8 °F 93% 29.65 in 4.0 mi North 9.2 mph 18.4 mph 0.02 in Rain Light Rain
6:55 PM 35.6 °F 29.2 °F 33.8 °F 93% 29.66 in 2.0 mi North 8.1 mph 16.1 mph 0.03 in   Overcast
7:15 PM 33.8 °F 25.8 °F 33.8 °F 100% 29.67 in 1.8 mi North 10.4 mph - 0.01 in Snow Light Snow
7:35 PM 33.8 °F 25.3 °F 33.8 °F 100% 29.67 in 1.8 mi NNW 11.5 mph 17.3 mph 0.01 in Snow Light Snow
7:55 PM 33.8 °F 25.3 °F 33.8 °F 100% 29.67 in 2.0 mi NNW 11.5 mph 16.1 mph 0.02 in Snow Light Snow
8:15 PM 33.8 °F 24.8 °F 33.8 °F 100% 29.68 in 1.8 mi NNW 12.7 mph 19.6 mph 0.01 in Snow Light Snow
8:35 PM 33.8 °F 25.3 °F 33.8 °F 100% 29.68 in 1.5 mi NNW 11.5 mph 18.4 mph 0.01 in Snow Light Snow
8:55 PM 33.8 °F 26.4 °F 33.8 °F 100% 29.68 in 1.5 mi NNW 9.2 mph - 0.02 in Snow Light Snow
9:14 PM 33.8 °F 25.3 °F 33.8 °F 100% 29.68 in 1.8 mi NNW 11.5 mph 16.1 mph 0.01 in Snow Light Snow
9:35 PM 33.8 °F 25.3 °F 33.8 °F 100% 29.69 in 2.0 mi NNW 11.5 mph 16.1 mph 0.01 in Snow Light Snow
9:55 PM 33.8 °F 25.3 °F 33.8 °F 100% 29.69 in 1.8 mi NNW 11.5 mph - 0.01 in Snow Light Snow
10:14 PM 33.8 °F 25.8 °F 33.8 °F 100% 29.69 in 1.5 mi NNW 10.4 mph 16.1 mph 0.01 in Snow Light Snow
10:34 PM 33.8 °F 25.3 °F 33.8 °F 100% 29.69 in 1.8 mi NNW 11.5 mph 17.3 mph 0.01 in Snow Light Snow
10:55 PM 33.8 °F 25.8 °F 33.8 °F 100% 29.68 in 2.0 mi NNW 10.4 mph 18.4 mph 0.01 in Snow Light Snow
11:14 PM 33.8 °F 25.8 °F 33.8 °F 100% 29.69 in 1.8 mi NNW 10.4 mph 16.1 mph 0.01 in Snow Light Snow
11:35 PM 33.8 °F 25.8 °F 33.8 °F 100% 29.68 in 1.8 mi NNW 10.4 mph - 0.01 in Snow Light Snow
11:55 PM 33.8 °F 25.8 °F 33.8 °F 100% 29.68 in 2.0 mi NNW 10.4 mph 16.1 mph 0.01 in Snow Light Snow